Location: Lagorce
(44.4489°N, 4.4170°E)
Time: 10:58:40
(UTC+00:00)

Daily predictions for brighter satellites

Satellite Brightness Start Highest point End
(mag) Time Altitude Azimuth Time Altitude Azimuth Time Altitude Azimuth
USA 267 3.6 18:55:34 10° NE 19:02:05 72° NW 19:08:36 10° WSW
Unknown 3.7 19:01:00 10° NW 19:05:10 85° NE 19:09:19 10° ESE
Unknown 3.6 19:02:40 10° NW 19:06:50 87° NNE 19:10:58 10° ESE
Okean 1 4.0 19:03:11 10° N 19:06:51 35° ENE 19:10:30 10° SE
Unknown 3.7 19:06:01 10° WNW 19:10:11 89° SW 19:14:20 10° SE
Unknown 3.7 19:07:39 10° WNW 19:11:50 86° SSW 19:15:59 10° SE
Cosmos 44 3.0 19:07:19 10° NNW 19:11:51 76° NE 19:16:09 10° SE
Meteor 1-20 Rocket 4.3 19:07:23 10° S 19:13:08 67° E 19:18:50 10° NNE
Unknown 3.7 19:09:18 10° WNW 19:13:28 85° SW 19:17:36 10° SE
Unknown 3.7 19:10:55 10° WNW 19:15:05 84° SW 19:19:14 10° SE
CZ-2C R/B 4.4 19:14:20 10° ENE 19:15:41 11° E 19:17:03 10° ESE
Cosmos 2266 Rocket 4.4 19:10:05 10° NNW 19:16:07 67° W 19:22:05 10° S
Unknown 3.7 19:12:42 10° WNW 19:16:52 80° SW 19:20:59 10° SE
Cosmos 1703 Rocket 4.0 19:12:46 10° NNW 19:17:13 67° W 19:21:35 10° S
BREEZE-M DEB (TANK) 3.1 19:13:08 10° WSW 19:17:14 79° NNW 19:22:42 10° ENE
Unknown 3.7 19:14:07 10° WNW 19:18:17 84° SW 19:22:26 10° SE
Unknown 3.7 19:17:26 10° WNW 19:21:36 80° SW 19:25:37 11° SE
COSMOS 2406 4.2 19:18:31 10° SSE 19:23:01 25° ESE 19:27:34 10° NE
Unknown 3.7 19:19:08 10° WNW 19:23:17 78° SW 19:27:15 11° SE
Unknown 3.8 19:20:59 10° WNW 19:25:07 69° SW 19:29:03 11° SE
BREEZE M DEB (TANK) 2.9 19:24:19 10° S 19:25:44 16° SE 19:26:59 12° E
Unknown 3.7 19:22:24 10° WNW 19:26:33 73° SW 19:30:24 12° SE
Unknown 3.8 19:24:07 10° WNW 19:28:15 71° SW 19:32:02 12° SE
Resurs 01 Rocket 2.2 19:26:38 10° SE 19:30:42 39° ENE 19:34:49 10° N
Aureole 2 3.9 19:27:44 10° SSW 19:30:45 67° ESE 19:33:41 10° NNE
Unknown 3.8 19:27:27 10° WNW 19:31:34 67° SW 19:35:14 13° SE
Cosmos 1602 3.7 19:28:01 10° S 19:31:46 56° E 19:35:32 10° NNE
Unknown 3.9 19:29:05 10° WNW 19:33:12 65° SW 19:36:48 13° SE
SPOT 3 Rocket 3.7 19:28:23 10° S 19:33:34 78° WSW 19:38:45 10° NNW
SJ-6B 3.1 19:30:03 10° S 19:33:59 70° W 19:38:01 10° NNW
Unknown 3.9 19:30:46 10° WNW 19:34:52 63° SW 19:38:25 14° SE
ARGOS 3.2 19:30:12 10° SSE 19:35:30 68° ENE 19:40:51 10° N
USA 234 3.4 19:29:38 10° SE 19:36:12 80° SW 19:42:48 10° NW
Unknown 3.9 19:32:28 10° WNW 19:36:34 61° SW 19:40:02 14° SE
Unknown 4.0 19:34:06 10° WNW 19:38:11 59° SW 19:41:36 14° SE
Unknown 4.3 19:37:46 10° WNW 19:41:47 49° SW 19:45:09 14° SSE
Unknown 4.3 19:39:25 10° WNW 19:43:24 48° SW 19:46:42 14° SSE
Cosmos 1536 4.4 19:43:36 16° ESE 19:44:38 18° E 19:47:22 10° NE
Unknown 4.2 19:40:52 10° WNW 19:44:54 51° SW 19:48:06 15° SSE
Unknown 4.2 19:42:27 10° WNW 19:46:29 51° SW 19:49:36 16° SSE
Cosmos 1869 Rocket 4.5 19:42:38 10° SSW 19:46:50 51° WNW 19:51:05 10° N
Cosmos 1500 4.5 19:48:19 19° ESE 19:49:36 23° E 19:52:41 10° NE
Unknown 4.3 19:45:49 10° WNW 19:49:48 48° SW 19:52:49 16° SSE
Unknown 4.3 19:47:31 10° WNW 19:51:29 46° SW 19:54:26 17° SSE
Cosmos 1733 Rocket 3.1 19:47:45 10° S 19:51:57 54° E 19:56:10 10° NNE
TSX-5 4.3 19:49:21 10° NNW 19:52:37 39° ENE 19:54:43 21° ESE
Meteor 2-4 Rocket 3.8 19:47:21 10° N 19:52:37 53° ENE 19:56:48 16° SSE
Unknown 4.4 19:49:09 10° WNW 19:53:07 45° SW 19:56:00 17° SSE
CZ-2C R/B 3.0 19:49:36 15° SE 19:53:26 55° ENE 19:58:08 10° N
Unknown 4.4 19:50:48 10° WNW 19:54:45 43° SW 19:57:34 17° SSE
USA 186 3.9 19:53:26 10° SW 19:55:19 19° W 19:57:18 10° NW
Cosmos 1674 Rocket 3.9 19:52:56 10° N 19:57:08 45° ENE 19:59:39 21° SE
Aureole 3 Rocket 3.5 19:57:12 23° SE 19:58:26 29° E 20:01:17 10° NNE
Cosmos 1553 Rocket 4.0 19:55:25 10° S 20:01:38 77° E 20:07:59 10° N
Cosmos 44 Rocket 3.3 19:59:54 10° NNW 20:04:40 62° NE 20:07:17 25° SE
Cosmos 1417 Rocket 4.4 20:07:09 10° S 20:13:19 89° WNW 20:19:28 10° N
Shenzhou-11 Module 2.1 20:11:49 10° WSW 20:14:21 45° S 20:14:21 45° S
Cosmos 923 Rocket 4.1 20:10:56 10° NNW 20:16:17 77° WSW 20:20:08 19° SSE
H-2A R/B 2.8 20:12:46 10° S 20:17:38 48° W 20:22:27 10° NNW
Cosmos 1975 Rocket 4.4 20:14:11 10° NNE 20:17:42 22° ENE 20:18:18 22° E
SL-24 R/B 4.2 20:14:47 19° SSE 20:18:12 89° WSW 20:22:38 10° NNW
Cosmos 1898 Rocket 3.6 20:14:11 10° S 20:19:16 51° ESE 20:24:21 10° NNE
Meteor 1-11 Rocket 3.8 20:15:34 10° S 20:21:16 63° E 20:27:11 10° NNE
Cosmos 1709 Rocket 4.3 20:16:58 10° N 20:22:52 47° ENE 20:25:44 28° SE
Aureole 2 Rocket 3.1 20:20:25 10° NW 20:22:54 35° WSW 20:23:39 28° SW
ADEOS Rocket 3.2 20:18:08 10° N 20:24:07 78° WNW 20:30:45 10° SSW
S3M 4.0 20:20:14 10° S 20:26:33 89° W 20:32:49 10° N
GP-B 3.1 20:22:39 10° N 20:27:03 59° E 20:28:44 35° SSE
Cosmos 1680 Rocket 3.5 20:22:40 10° NNW 20:27:56 79° WSW 20:30:56 26° SSE
Cosmos 1515 3.9 20:26:53 10° NNW 20:30:41 69° W 20:32:26 30° S
Cosmos 1833 Rocket 3.1 20:29:34 31° SE 20:31:15 38° ESE 20:36:26 10° NE
Cosmos 2082 Rocket 3.1 20:31:50 27° E 20:31:50 27° E 20:36:10 10° NE
MetOp-B 4.1 20:29:51 27° SSE 20:32:51 83° ENE 20:38:14 10° NNW
Cosmos 1656 3.7 20:28:03 10° NNW 20:33:44 66° ENE 20:36:05 35° SE
Geosat 4.1 20:31:47 35° SE 20:33:49 64° ENE 20:38:48 10° NNW
Cosmos 2315 Rocket 4.2 20:31:21 27° SSE 20:34:33 50° E 20:40:39 10° NNE
Cosmos 2278 4.5 20:29:56 10° NNW 20:35:11 37° NE 20:37:08 29° E
Abrixas rocket 3.1 20:32:37 10° W 20:35:35 43° N 20:36:32 31° NE
MTI 3.6 20:32:37 10° NNE 20:35:48 89° WNW 20:36:11 66° SSW
CZ-4B DEB 4.3 20:35:46 63° E 20:35:58 65° ENE 20:39:21 10° N
ERS-1 Rocket 3.3 20:38:35 38° ESE 20:39:57 47° ENE 20:44:46 10° N
Cosmos 1745 Rocket 4.2 20:36:16 10° NNW 20:42:22 68° W 20:47:03 18° S
SL-16 R/B 4.4 20:40:04 10° NNE 20:42:24 12° NE 20:44:42 10° ENE
Meteor 1-5 Rocket 4.3 20:37:16 10° SSW 20:43:03 81° W 20:48:41 10° N
SL-08 ROCKET BODY 4.3 20:39:02 10° N 20:44:58 88° E 20:47:56 31° S
Cosmos 1697 Rocket 3.1 20:39:26 10° NNW 20:44:58 50° ENE 20:46:43 37° ESE
Cosmos 1066 Rocket 4.4 20:41:49 10° N 20:47:03 48° ENE 20:48:14 41° ESE
Landsat 7 4.0 20:46:18 46° ESE 20:47:17 55° ENE 20:51:57 10° N
Cosmos 1666 3.6 20:48:51 35° ENE 20:48:51 35° ENE 20:51:34 10° NNE
OAO 3 Rocket 4.5 20:44:06 10° WSW 20:47:32 25° SSW 20:47:32 25° SSW
Cosmos 2098 Rocket 3.4 20:44:47 10° N 20:49:21 85° E 20:51:29 38° S
Cosmos 1908 Rocket 3.5 20:49:13 37° S 20:50:59 87° WNW 20:55:29 10° N
IGS 5A 3.6 20:53:46 54° E 20:53:52 54° ENE 20:57:56 10° N
CZ-2C R/B 2.5 20:51:25 10° NNE 20:56:43 84° ESE 20:59:23 31° S
SJ 16-02 1.2 20:58:54 55° SSW 20:59:52 86° ESE 21:04:19 10° NNE
ASTEX 1 4.3 20:58:01 10° N 21:02:47 48° WNW 21:06:34 16° SSW
EXPRESS MD2 3.8 20:59:31 10° WNW 21:02:14 41° WNW 21:02:14 41° WNW
Spot 2 Rocket 4.4 21:02:19 24° SSW 21:04:59 44° W 21:09:51 10° NNW
Cosmos 1937 Rocket 3.5 21:03:17 25° SSW 21:06:25 86° WNW 21:11:47 10° NNE
COSMOS 2406 4.0 21:01:25 10° SW 21:06:57 52° WNW 21:12:33 10° NNE
Meteor 1-23 Rocket 4.2 21:01:12 10° NNW 21:06:58 84° W 21:08:45 46° S
Resurs 01 Rocket 3.8 21:04:01 10° SW 21:07:20 21° W 21:10:42 10° NW
Cosmos 1980 Rocket 2.7 21:02:30 10° NNW 21:07:52 43° ENE 21:08:52 39° E
Sich 1 Rocket 3.6 21:08:20 66° ENE 21:08:20 66° ENE 21:12:37 10° NNE
Cosmos 990 Rocket 4.3 21:03:16 10° SSW 21:08:23 67° WNW 21:13:34 10° NNE
Cosmos 158 Rocket 4.1 21:06:07 10° NNW 21:11:25 72° WSW 21:12:40 52° S
SPOT 1/Viking Rocket 3.5 21:11:19 58° SSE 21:12:25 88° W 21:17:40 10° NNW
Meteor 2-16 Rocket 4.4 21:07:16 10° N 21:13:25 80° W 21:15:34 43° S
Cosmos 1900 4.1 21:10:10 10° NNW 21:15:12 89° ENE 21:15:36 76° SE
Terra 2.0 21:17:47 55° ENE 21:17:47 55° ENE 21:22:22 10° N
Cosmos 1346 Rocket 3.3 21:19:07 52° N 21:19:07 52° N 21:22:06 10° N
NOSS 3-1 (C) 4.3 21:11:12 10° NNW 21:18:34 59° NE 21:21:42 38° ESE
Cosmos 1536 4.2 21:19:18 28° WSW 21:20:45 37° WNW 21:24:34 10° N
MOS 1 Rocket 3.7 21:16:07 10° NNE 21:21:24 59° E 21:21:24 59° E
Cosmos 2369 3.7 21:17:20 10° NNW 21:22:59 76° WSW 21:23:56 61° S
Cosmos 2150 Rocket 4.1 21:25:49 56° ENE 21:25:49 56° ENE 21:30:16 10° NNE
Cosmos 2298 Rocket 3.9 21:29:06 75° E 21:29:06 75° E 21:34:20 10° NNE
USA 32 3.9 21:23:54 10° N 21:29:10 81° W 21:29:43 70° SSW
Cosmos 1782 Rocket 3.9 21:29:24 58° W 21:29:42 60° W 21:34:05 10° N
SPOT 5 3.0 21:39:17 58° WNW 21:39:17 58° WNW 21:43:09 10° NNW
FALCON 9 R/B 4.0 21:17:46 10° WSW 21:39:11 43° S 21:40:03 42° SSE
Cosmos 1340 4.2 21:46:18 35° NW 21:46:18 35° NW 21:48:58 10° N
Cosmos 1975 Rocket 4.3 21:51:36 10° NNW 21:55:27 35° W 21:55:27 35° W
Cosmos 2322 Rocket 3.3 21:51:38 10° N 21:56:38 31° NE 21:56:51 31° ENE
Cosmos 2360 4.2 21:51:29 10° NNW 21:57:06 71° WSW 21:57:06 71° WSW
Cosmos 2154 Rocket 4.0 21:55:47 10° N 22:01:57 66° ENE 22:01:57 66° ENE
Cosmos 1048 Rocket 4.2 21:57:03 10° NNW 22:01:26 65° N 22:01:26 65° N
Thor Agena Rocket 4.3 21:57:30 10° N 22:02:28 48° WNW 22:03:28 43° WSW
Meteor 2-15 Rocket 4.5 22:05:53 68° ENE 22:05:53 68° ENE 22:11:31 10° NNE
Nadezhda 1 Rocket 3.9 22:05:55 76° ENE 22:05:55 76° ENE 22:11:50 10° N
BREEZE-M DEB (TANK) 4.4 21:53:30 10° WNW 22:08:11 60° SW 22:08:21 60° SSW
Cosmos 1867 4.0 22:07:59 10° NNW 22:12:52 55° NNE 22:12:52 55° NNE
Cosmos 1833 Rocket 4.1 22:11:09 15° WSW 22:15:12 35° NW 22:20:22 10° N
Cosmos 2082 Rocket 3.0 22:13:36 37° WSW 22:15:17 48° WNW 22:20:46 10° NNE
USA 229 DEB 3.8 22:08:41 10° NW 22:15:54 67° WSW 22:16:28 65° SSW
USA 229 3.8 22:08:47 10° NW 22:16:00 68° WSW 22:16:34 66° SSW
Cosmos 2074 Rocket 4.2 22:10:37 10° NNW 22:16:48 59° W 22:17:16 58° WSW
NOSS 3-1 (A) 4.0 22:11:48 10° NW 22:19:24 84° NE 22:20:39 68° SE
Meteor 2-15 4.4 22:19:32 75° W 22:19:33 75° W 22:25:42 10° N
Cosmos 2184 Rocket 4.3 22:16:30 10° NNW 22:22:30 55° W 22:22:47 54° WSW
Meteor 2-9 Rocket 4.4 22:23:15 72° N 22:23:15 72° N 22:28:31 10° N
Cosmos 1125 Rocket 4.2 22:25:30 51° N 22:25:30 51° N 22:29:26 10° NNE
SL-16 R/B 2.7 22:22:11 10° NNW 22:27:04 54° NNE 22:27:04 54° NNE
Cosmos 1697 Rocket 4.2 22:24:00 10° NW 22:28:27 26° W 22:28:27 26° W
Mayak 0.8 22:31:49 10° N 22:33:40 26° N 22:33:40 26° N
SJ 16-02 4.3 22:37:28 10° WNW 22:39:07 12° NW 22:40:48 10° NNW
Cosmos 2341 Rocket 4.1 22:36:49 10° N 22:42:36 73° NNE 22:42:36 73° NNE
Cosmos 2360 Rocket 3.3 22:41:27 10° NNW 22:46:10 36° NE 22:46:10 36° NE
Cosmos 1980 Rocket 3.6 22:46:50 10° NW 22:50:37 28° W 22:50:37 28° W
Cosmos 2219 Rocket 4.3 22:49:23 10° N 22:53:01 17° NE 22:54:22 16° ENE
Terra 4.1 22:56:41 17° WNW 22:56:41 17° WNW 22:58:57 10° NW
CZ-4C R/B 3.0 23:05:55 45° NNE 23:05:55 45° NNE 23:10:09 10° NE
Cosmos 2181 Rocket 4.3 23:11:18 63° N 23:11:18 63° N 23:16:23 10° N
SL-8 Rocket 4.3 23:09:25 10° N 23:14:46 65° NNW 23:14:46 65° NNW
Aureole 1 Rocket 4.4 23:21:31 10° NNW 23:29:18 66° ENE 23:29:18 66° ENE
COSMOS 2455 4.1 23:27:14 10° NNW 23:32:40 33° NE 23:33:24 32° ENE
Cosmos 2333 Rocket 3.5 23:33:28 10° N 23:38:26 34° NE 23:38:26 34° NE
Cosmos 2322 Rocket 3.6 23:35:30 10° NW 23:38:38 30° WNW 23:38:38 30° WNW
Lacrosse 4 Rocket 4.0 23:48:15 10° NNW 23:49:29 18° NNW 23:49:29 18° NNW
